[[{"header":{"parameterUnit":"m.s-1","parameterCategory":1,"la1":30.2991,"la2":30.254,"lo1":-89.0895,"lo2":-89.0444,"dy":0.0017,"dx":0.0017,"nx":28,"ny":28,"refTime":"2025-04-12T21:00:00:Z","depth":0,"parameterNumber":2,"parameterNumberName":"U-component_of_WINDS"},"data":[0,0,0,0,0,0,0,0,0,0,0,0,0,0,0,0,0,0,0,0,0,0,0,0,0,0,0,0,0,0,0,0,0,0,0,0,0,0,0,0,0,0,0,0,0,0,0,0,0,0,0,0,0,0,0,0,0,0,3.7103,3.7104,0,3.7223,3.7224,3.7225,3.7239,3.7238,3.7237,3.7236,3.7356,3.736,3.7364,0,0,0,0,0,0,0,0,0,0,0,0,0,3.6884,3.6888,3.7103,3.7105,3.7106,3.7222,3.7224,3.7226,3.7239,3.7238,3.7236,3.7235,3.7354,3.7359,3.7365,0,0,0,0,0,0,0,0,0,0,0,0,0,3.6989,3.689,3.7103,3.7127,3.713,3.7222,3.7224,3.7226,3.724,3.7238,3.7236,3.7234,3.7353,3.7359,3.7365,3.7441,0,0,3.7385,3.7388,0,0,0,0,0,0,0,0,3.6983,3.6997,3.7122,3.7125,3.7129,3.7214,3.7191,3.7298,3.724,3.7198,3.7236,3.7233,3.731,3.732,3.7346,3.7446,3.7451,3.7386,3.7389,3.7392,3.7394,0,0,0,0,0,0,0,3.6976,3.6992,3.715,3.7124,3.7128,3.7131,3.7144,3.7211,3.7262,3.7202,3.7203,3.7217,3.7312,3.734,3.7349,3.7453,3.7385,3.7391,3.7395,3.7398,3.7621,3.7623,0,0,0,0,0,0,3.6964,3.6986,3.7147,3.7154,3.705,3.7136,3.7151,3.7189,3.7262,3.7271,3.7218,3.7217,3.733,3.7341,3.7353,3.7446,3.7392,3.7398,3.7402,3.7619,3.7621,3.7623,0,0,0,0,0,0,3.696,3.6979,3.7142,3.707,3.7091,3.7142,3.7184,3.7192,3.722,3.7274,3.7283,3.7238,3.7329,3.7344,3.7419,3.745,3.7401,3.7407,3.7616,3.762,3.7622,3.7631,0,0,0,0,0,0,3.6953,3.6977,3.7006,3.7071,3.7095,3.7206,3.7186,3.7196,3.7232,3.7231,3.7295,3.7304,3.7328,3.7409,3.7425,3.7458,3.7412,3.7614,3.7618,3.7621,3.7629,3.7634,3.764,0,0,0,0,0,3.6946,3.7004,3.7008,3.7027,3.7133,3.7208,3.7221,3.7249,3.7234,3.7264,3.7299,3.7302,3.7444,3.7417,3.7435,3.747,3.7612,3.7617,3.7621,3.7626,3.7633,3.7639,0,0,0,0,0,0,3.6941,3.7013,3.7018,3.7099,3.7147,3.721,3.7248,3.7256,3.7309,3.7306,3.7337,3.7352,3.7425,3.7455,3.7423,3.7547,3.7527,3.7535,3.7524,3.7531,3.7537,3.7527,3.7417,0,0,0,0,0,3.6949,3.7005,3.7064,3.713,3.7154,3.7197,3.723,3.7248,3.7299,3.7319,3.7359,3.7408,3.7463,3.7499,3.7554,3.7634,3.7647,3.7667,3.7672,3.7676,3.7683,3.7727,3.7736,3.7639,3.7639,3.7639,0,0,3.6967,3.7013,3.7046,3.713,3.7169,3.7225,3.7214,3.7273,3.7315,3.7328,3.74,3.7432,3.7488,3.7566,3.7602,3.7593,3.7713,3.7682,3.7685,3.769,3.7732,3.7741,3.775,3.7642,3.7641,3.7641,0,0,3.7028,3.7069,3.7128,3.7168,3.7228,3.7256,3.727,3.7332,3.7354,3.7428,3.7439,3.7488,3.7583,3.7623,3.7656,3.7732,3.7736,3.7749,3.7777,3.7819,3.7827,3.7834,3.786,3.7869,3.7755,3.7755,3.7755,0,3.7042,3.7127,3.7157,3.7216,3.7252,3.7268,3.7327,3.7365,3.7439,3.7463,3.7453,3.7573,3.7612,3.7699,3.7717,3.7744,3.776,3.7741,3.7823,3.7831,3.7837,3.7863,3.7873,3.7756,3.7756,3.7756,3.7756,0,3.7141,3.72,3.724,3.7312,3.7354,3.7413,3.7451,3.7489,3.7503,3.7532,3.7607,3.7654,3.7718,3.774,3.7754,3.7829,3.7822,3.7817,3.7797,3.7847,3.7871,3.7881,3.7758,3.7758,3.7757,3.7757,0,0,3.72,3.7289,3.7304,3.7337,3.7404,3.745,3.751,3.7573,3.7605,3.7656,3.7706,3.7786,3.7783,3.782,3.7838,3.7876,3.7932,3.7866,3.7868,3.7876,3.8016,3.8018,3.8029,3.7936,3.7938,3.794,3.8011,0,3.7268,3.7375,3.7404,3.7495,3.7549,3.7565,3.7617,3.7664,3.7693,3.7743,3.7775,3.7831,3.7822,3.7845,3.7882,3.7917,3.796,3.7912,3.7982,3.7984,3.7966,3.8042,3.8044,3.8109,3.8021,3.8022,3.8023,0,3.7361,3.7414,3.7511,3.7572,3.7596,3.7642,3.7702,3.775,3.7803,3.7822,3.7863,3.7879,3.794,3.7918,3.8004,3.797,3.8001,3.8022,3.8025,3.8031,3.8005,3.8049,3.813,3.8139,3.8039,3.8038,3.8036,0,3.7393,3.7489,3.7559,3.7587,3.7661,3.7692,3.7724,3.7776,3.7812,3.7865,3.7889,3.7948,3.7979,3.8024,3.8055,3.8036,3.8137,3.8118,3.8153,3.8152,3.8172,3.817,3.8259,3.8194,3.8194,3.8194,3.8194,0,3.7464,3.7522,3.7575,3.7618,3.7683,3.7716,3.7779,3.7812,3.7858,3.7906,3.7924,3.7969,3.8007,3.8058,3.8082,3.8148,3.8163,3.8178,3.8184,3.8176,3.8174,3.8195,3.8191,3.8196,3.8196,3.8195,3.8195,0,3.751,3.7548,3.7626,3.7689,3.7706,3.7752,3.7805,3.7847,3.7878,3.7939,3.7955,3.8002,3.8062,3.8098,3.8173,3.819,3.8262,3.8267,3.8245,3.8247,3.828,3.8275,3.8383,3.8399,3.8325,3.8326,3.8326,0,3.7553,3.7598,3.7667,3.7701,3.7734,3.7789,3.7826,3.786,3.7898,3.7963,3.7997,3.8058,3.8109,3.8204,3.8244,3.8302,3.8307,3.8341,3.8315,3.8306,3.8306,3.8302,3.8306,3.8344,3.8345,3.8345,3.8346,0,3.7624,3.764,3.7694,3.7755,3.7799,3.7848,3.7897,3.7924,3.7966,3.8008,3.807,3.8109,3.8187,3.8247,3.8308,3.834,3.835,3.8354,3.8365,3.8356,3.8341,3.8349,3.8255,3.8351,3.835,3.835,3.835,3.8349,3.7668,3.7709,3.7764,3.7823,3.7864,3.7909,3.7951,3.7987,3.804,3.8106,3.8123,3.8188,3.824,3.8324,3.8357,3.8408,3.8402,3.8418,3.8422,3.8425,3.8425,3.8335,3.8419,3.8419,3.8419,3.8419,3.8419,0,3.7739,3.7775,3.783,3.7898,3.7944,3.7951,3.8005,3.8043,3.81,3.8149,3.8199,3.827,3.8328,3.8374,3.8434,3.8465,3.8471,3.848,3.8477,3.8484,3.8428,3.8412,3.8474,3.8474,3.8474,3.8474,3.8474,3.8474,3.7781,3.785,3.7873,3.7962,3.7998,3.8063,3.8093,3.8134,3.8173,3.8252,3.8301,3.8331,3.8378,3.8442,3.8495,3.8507,3.8528,3.8535,3.8547,3.8494,3.8488,3.8482,3.8467,3.854,3.854,3.8599,3.86,3.86]},{"header":{"parameterUnit":"m.s-1","parameterCategory":1,"la1":30.2991,"la2":30.254,"lo1":-89.0895,"lo2":-89.0444,"dy":0.0017,"dx":0.0017,"nx":28,"ny":28,"refTime":"2025-04-12T21:00:00:Z","depth":0,"parameterNumber":3,"parameterNumberName":"V-component_of_WINDS"},"data":[0,0,0,0,0,0,0,0,0,0,0,0,0,0,0,0,0,0,0,0,0,0,0,0,0,0,0,0,0,0,0,0,0,0,0,0,0,0,0,0,0,0,0,0,0,0,0,0,0,0,0,0,0,0,0,0,0,0,4.0282,4.0283,0,4.0399,4.0401,4.0402,4.044,4.044,4.0439,4.0439,4.0555,4.0558,4.0562,0,0,0,0,0,0,0,0,0,0,0,0,0,4.0085,4.0089,4.0282,4.0283,4.0285,4.0399,4.0401,4.0402,4.044,4.044,4.0439,4.0439,4.0554,4.0558,4.0562,0,0,0,0,0,0,0,0,0,0,0,0,0,4.0183,4.009,4.0281,4.0318,4.0322,4.0399,4.0401,4.0403,4.0441,4.044,4.0439,4.0438,4.0552,4.0557,4.0563,4.0611,0,0,4.0579,4.0581,0,0,0,0,0,0,0,0,4.0178,4.0191,4.0311,4.0315,4.032,4.0405,4.0374,4.0472,4.0441,4.0395,4.0439,4.0438,4.0505,4.0514,4.0538,4.0616,4.0621,4.0579,4.0583,4.0585,4.0586,0,0,0,0,0,0,0,4.0171,4.0186,4.0328,4.0312,4.0318,4.0326,4.0339,4.0393,4.0453,4.0399,4.0402,4.0416,4.0508,4.0533,4.0541,4.0623,4.0579,4.0584,4.0587,4.0589,4.0746,4.0747,0,0,0,0,0,0,4.0159,4.018,4.0324,4.0332,4.0246,4.033,4.0345,4.0378,4.0452,4.0463,4.0417,4.0417,4.0524,4.0535,4.0545,4.0607,4.0585,4.059,4.0593,4.0745,4.0746,4.0747,0,0,0,0,0,0,4.0154,4.0171,4.032,4.0257,4.0276,4.0335,4.0371,4.0381,4.0406,4.0466,4.0476,4.0432,4.0524,4.0538,4.0594,4.0611,4.0592,4.0597,4.0744,4.0745,4.0747,4.073,0,0,0,0,0,0,4.0149,4.0169,4.019,4.0257,4.0279,4.0368,4.0372,4.0384,4.0416,4.0418,4.0482,4.0492,4.0524,4.0586,4.06,4.0618,4.0601,4.0742,4.0744,4.0746,4.0729,4.073,4.0731,0,0,0,0,0,4.0141,4.0179,4.019,4.0208,4.0306,4.0369,4.0382,4.0419,4.0417,4.0437,4.0475,4.049,4.0607,4.0592,4.0607,4.0627,4.0742,4.0744,4.0746,4.0728,4.073,4.0731,0,0,0,0,0,0,4.0111,4.0189,4.0202,4.0263,4.0309,4.0376,4.0402,4.042,4.0467,4.0467,4.0509,4.0524,4.0577,4.0608,4.059,4.0677,4.0675,4.068,4.0656,4.0658,4.0659,4.0651,4.0606,0,0,0,0,0,4.0111,4.0158,4.0222,4.027,4.0292,4.0343,4.0372,4.0397,4.0446,4.0466,4.0508,4.0554,4.0601,4.0631,4.0677,4.0733,4.0747,4.0754,4.0755,4.0756,4.0761,4.0792,4.0796,4.0754,4.0754,4.0754,0,0,4.0112,4.0161,4.0187,4.0265,4.0304,4.035,4.0359,4.0407,4.0442,4.0472,4.053,4.0562,4.0615,4.0672,4.0699,4.0699,4.0775,4.0759,4.0759,4.0763,4.0795,4.0799,4.0802,4.0756,4.0755,4.0755,0,0,4.0138,4.0179,4.0224,4.0263,4.0322,4.0355,4.0366,4.043,4.0453,4.0511,4.0535,4.0575,4.0655,4.0693,4.0722,4.0762,4.0777,4.0775,4.0782,4.0812,4.0816,4.0819,4.0833,4.0838,4.0779,4.0779,4.0779,0,4.0132,4.0204,4.0244,4.0291,4.0324,4.0355,4.04,4.0435,4.0506,4.0527,4.0526,4.0628,4.0666,4.0732,4.0742,4.0764,4.0777,4.0769,4.0812,4.0816,4.0819,4.0834,4.0839,4.0778,4.0779,4.0779,4.0779,0,4.0193,4.0242,4.0271,4.034,4.0376,4.0422,4.0467,4.0498,4.0519,4.0552,4.061,4.0657,4.0714,4.0731,4.0752,4.08,4.0798,4.0804,4.0803,4.0822,4.0836,4.0842,4.0778,4.0778,4.0778,4.0778,0,0,4.0204,4.0295,4.0305,4.0337,4.0404,4.0442,4.0488,4.0545,4.0572,4.0618,4.0658,4.0725,4.0731,4.0764,4.0789,4.0815,4.0844,4.0818,4.082,4.0822,4.09,4.0896,4.0902,4.0854,4.0855,4.0856,4.0896,0,4.024,4.0326,4.0363,4.0431,4.0477,4.0506,4.0546,4.0591,4.0623,4.0665,4.0698,4.0746,4.075,4.077,4.0798,4.0835,4.086,4.0832,4.0891,4.0892,4.0878,4.0909,4.0905,4.0941,4.0902,4.0903,4.0903,0,4.0293,4.0343,4.0416,4.0478,4.0499,4.0534,4.0589,4.0629,4.068,4.0701,4.0738,4.0761,4.0809,4.0803,4.087,4.085,4.0876,4.0897,4.0899,4.0907,4.09,4.0919,4.0953,4.0958,4.0912,4.0912,4.0911,0,4.0295,4.0379,4.0435,4.0461,4.0534,4.0558,4.059,4.064,4.0672,4.0719,4.074,4.0791,4.0819,4.0858,4.0894,4.0886,4.0957,4.0954,4.0975,4.0974,4.099,4.0989,4.1029,4.1004,4.1004,4.1004,4.1004,0,4.0332,4.0376,4.0437,4.0471,4.052,4.0561,4.0608,4.0641,4.0686,4.0726,4.0753,4.0789,4.0834,4.0876,4.0904,4.0955,4.0967,4.0985,4.0992,4.0983,4.0981,4.1002,4.1001,4.1006,4.1005,4.1005,4.1005,0,4.0343,4.0385,4.0448,4.0512,4.0529,4.0563,4.0617,4.0651,4.0683,4.0733,4.0747,4.0797,4.0848,4.0888,4.0953,4.0972,4.1026,4.1033,4.1009,4.1013,4.1033,4.1031,4.1089,4.1099,4.1066,4.1066,4.1066,0,4.0364,4.0399,4.0467,4.0497,4.0529,4.0575,4.0608,4.0649,4.0682,4.0742,4.0768,4.082,4.0865,4.0944,4.0985,4.1035,4.1045,4.1061,4.1052,4.1042,4.1046,4.1044,4.1048,4.1063,4.1063,4.1063,4.1063,0,4.0397,4.0417,4.0464,4.0519,4.0558,4.0602,4.0647,4.0669,4.0718,4.0753,4.0806,4.084,4.0907,4.0959,4.1013,4.1044,4.1062,4.1066,4.1073,4.1066,4.1051,4.106,4.1013,4.1064,4.1064,4.1064,4.1064,4.1064,4.0415,4.0448,4.0501,4.0553,4.0591,4.0632,4.0667,4.0704,4.075,4.0809,4.0829,4.0884,4.0932,4.1007,4.1038,4.108,4.1081,4.1092,4.1095,4.1097,4.1097,4.1043,4.109,4.109,4.109,4.109,4.109,0,4.0451,4.0487,4.0534,4.0597,4.0637,4.0651,4.0701,4.0734,4.0782,4.0826,4.087,4.093,4.0981,4.1026,4.1078,4.1103,4.1112,4.1115,4.1114,4.1121,4.1093,4.1081,4.1107,4.1107,4.1107,4.1107,4.1107,4.1107,4.0474,4.0531,4.0556,4.063,4.0665,4.0721,4.0748,4.0786,4.0822,4.0889,4.0931,4.0961,4.1006,4.1061,4.1107,4.1119,4.1137,4.1139,4.1152,4.1125,4.1123,4.1121,4.1111,4.1142,4.1142,4.1178,4.1178,4.1178]}]]